Regional Weather Roundup
Issued by NWS

Home | Current Version | Previous Version | Text Only | Print | Product List | Glossary On
Versions: 1 2 3 4 5 6 7 8 9 10 11 12 13 14 15 16 17 18 19 20 21 22 23 24 25 26 27 28 29 30 31 32 33 34 35 36 37 38 39 40 41 42 43 44 45 46 47 48 49
000
ASUS45 KBOU 302007
RWRCO

WEATHER ROUNDUP FOR COLORADO
NATIONAL WEATHER SERVICE DENVER/BOULDER CO
100 PM MST FRI JAN 30 2015

NOTE: "FAIR" INDICATES FEW OR NO CLOUDS BELOW 12000 FEET WITH NO
SIGNIFICANT WEATHER AND/OR OBSTRUCTIONS TO VISIBILITY.

COZ001>005-013-030-031-302100-
...NORTHWEST COLORADO...

CITY           SKY/WX    TMP DP  RH WIND       PRES   REMARKS
CRAIG          CLOUDY    37  32  82 CALM      30.10F
HAYDEN         CLOUDY    36  28  75 E3        30.10F
MEEKER         CLOUDY    35  32  88 S3        30.08F
MOUNT WERNER   NOT AVBL
STEAMBOAT SPGS CLOUDY    36  28  72 CALM      30.10F
WALDEN         CLOUDY    34  27  75 CALM      30.13F
$$

COZ006>008-011-302100-
...WEST CENTRAL VALLEYS...

CITY           SKY/WX    TMP DP  RH WIND       PRES   REMARKS
GRAND JUNCTION CLOUDY    46  32  58 SE7       30.05F
MONTROSE       CLOUDY    42  32  67 NW9       30.08F
EAGLE          CLOUDY    37  28  70 CALM      30.13F
RIFLE          CLOUDY    43  30  60 CALM      30.06F
DELTA          DRIZZLE   46  37  71 CALM      30.07F
NUCLA          DRIZZLE   37  36  93 SW3       30.11F
$$

COZ017>023-064>068-302100-
...SOUTHWEST COLORADO...

CITY           SKY/WX    TMP DP  RH WIND       PRES   REMARKS
DURANGO        SNOW      32  32 100 E5        30.14F VSB 1/2 WCI  27
CORTEZ         CLOUDY    40  34  79 VRB3      30.09F
PAGOSA SPRINGS SNOW      34  33  99 CALM      30.16F VSB 1/2
TELLURIDE      LGT SNOW  36  32  85 SE6       30.09F
WOLF CREEK PAS SNOW      23  23 100 SW15G22   30.21F VSB 1/4 WCI  10
$$

COZ009-010-012-014-032>034-037-058>063-302100-
...CENTRAL COLORADO...

CITY           SKY/WX    TMP DP  RH WIND       PRES   REMARKS
ASPEN          CLOUDY    35  25  66 N5        30.09F WCI  31
BUENA VISTA    LGT SNOW  32  29  90 CALM      30.17F
COPPER MTN     LGT SNOW  32  25  74 E5        30.18F WCI  27
BERTHOUD PASS  CLOUDY    18  12  79 SE24G30   30.20F WCI   0
COTTONWOOD PAS SNOW      32  30  93 CALM      30.17F VSB 1/2
GUNNISON       CLOUDY    34  28  80 NE5       30.15F WCI  30
KREMMLING      CLOUDY    32  23  69 CALM      30.15F
LEADVILLE      LGT SNOW  25  22  88 S6        30.14F FOG     WCI  18
MONARCH PASS   MIX PCPN  23  21  93 MISG      30.28F VSB<1/4
SALIDA         CLOUDY    34  32  92 CALM      30.24F
SUNLIGHT       LGT SNOW  32  28  86 E6          N/A  VSB 1   WCI  26
WILKERSON PASS CLOUDY    28  19  69 CALM      30.21F
$$

COZ069>075-302100-
...SAN LUIS VALLEY/SANGRE DE CRISTO MOUNTAINS...

CITY           SKY/WX    TMP DP  RH WIND       PRES   REMARKS
ALAMOSA        CLOUDY    32  28  85 CALM      30.17F
LA VETA PASS   LGT SNOW  27  25  93 S12G20    30.14F VSB 3/4 WCI  16
SAGUACHE       LGT SNOW  32  28  86 CALM      30.19F
$$

COZ035-036-038>040-302100-
...NORTHERN COLORADO FRONT RANGE...

CITY           SKY/WX    TMP DP  RH WIND       PRES   REMARKS
DENVER INTL AP CLOUDY    45  27  49 NW5       30.11F
DMNS CITY PARK   N/A     48  25  41 E2        30.10F
AURORA         CLOUDY    44  26  48 N6        30.12F
FRONT RANGE AP CLOUDY    45  30  57 CALM      30.12F
ERIE MUNI ARPT CLOUDY    46  26  45 CALM      30.11F
BOULDER MUN AP CLOUDY    45  28  53 CALM      30.11F
CENTENNIAL     CLOUDY    46  26  45 N7        30.11F
BROOMFIELD     CLOUDY    46  27  46 N5        30.13F
FORT COLLINS   CLOUDY    45  28  53 S5        30.13F
LONGMONT       CLOUDY    49  27  42 CALM      30.13F
$$

COZ041-046-047-076>085-087-088-302100-
...PIKES PEAK/PALMER DIVIDE AND SOUTHERN FOOTHILLS...

CITY           SKY/WX    TMP DP  RH WIND       PRES   REMARKS
COLO. SPRINGS  CLOUDY    39  24  55 CALM      30.13F
A. F. ACADEMY  CLOUDY    38  24  57 CALM      30.12F
ELLICOTT       CLOUDY   N/A N/A N/A S6        30.12F
FALCON         CLOUDY    38  22  53 CALM      30.13F
FORT CARSON    CLOUDY    39  25  56 SE1       30.12F
LIMON          CLOUDY    40  30  67 S13       30.13F
MONUMENT HILL  CLOUDY    43  23  45 N8        30.11F
TRINIDAD       LGT SNOW  33  31  92 W16       30.14F FOG     WCI  23
$$

COZ042>045-048>051-090-091-302100-
...NORTHEAST COLORADO...

CITY           SKY/WX    TMP DP  RH WIND       PRES   REMARKS
GREELEY ARPT   CLOUDY    45  27  49 CALM      30.10F
AKRON          CLOUDY    46  30  53 W9        30.11F
BURLINGTON     CLOUDY    45  29  53 S30G37    30.17F
WRAY           CLOUDY    52  33  48 S17G30    30.14F
STERLING       CLOUDY    45  30  57 W5        30.11F
HOLYOKE        NOT AVBL
FORT MORGAN    CLOUDY    42  28  58 SW7       30.13F
$$

COZ086-089-092>099-302100-
...SOUTHEAST COLORADO...

CITY           SKY/WX    TMP DP  RH WIND       PRES   REMARKS
PUEBLO         CLOUDY    42  27  55 CALM      30.12F
LA JUNTA       LGT RAIN  42  35  76 S13       30.15F
LAMAR          LGT RAIN  39  34  82 S21G30    30.20F
SPRINGFIELD      N/A     34  31  88 S16G25    30.23F WCI  24
$$


USA.gov is the U.S. government's official web portal to all federal, state and local government web resources and services.